• Join FlightAware (Why Join?)
  • Login
  • US Flag 
11:48PM EST


 

Airport Tracker/Info


-or-


 

Live Flight TrackerFlight Track Log ✈ AAL1624 ✈ 02-May-2013 ✈ KORD - KMCI

Flight Track Log - Related Links

Times and Time Zones

All times are in EDT time to prevent confusion due to time zone crossing. See the AAL1624 flight status page for this flight to view local times or setup timezone preferences in your user account.

Time Position Orientation Groundspeed Altitude Reporting Facility
EDT Latitude Longitude Course Direction KTS MPH feet Rate Location/Type
11:23PM 41.9970 -87.9400 320° Northwest 159 183 1,200  Level FlightAware
11:24PM 42.0160 -87.9550 330° Northwest 169 194 2,200 1,600 Climbing FlightAware
11:24PM 42.0400 -87.9740 330° Northwest 212 244 2,800 1,200 Climbing FlightAware
11:24PM 42.0650 -87.9910 333° Northwest 254 292 3,300 1,309 Climbing FlightAware
11:25PM 42.0960 -88.0140 331° Northwest 286 329 4,000 1,467 Climbing FlightAware
11:25PM 42.1060 -88.0310 308° West 290 334 4,400 2,400 Climbing FlightAware
11:25PM 42.1120 -88.0620 285° West 285 328 5,200 3,450 Climbing FlightAware
11:26PM 42.1130 -88.1080 272° West 278 320 6,700 3,164 Climbing FlightAware
11:26PM 42.1140 -88.1600 272° West 286 329 8,100 2,800 Climbing FlightAware
11:27PM 42.1140 -88.1850 270° West 286 329 8,800 3,164 Climbing FlightAware
11:27PM 42.1150 -88.2600 271° West 294 338 11,000 3,086 Climbing FlightAware
11:28PM 42.1160 -88.3130 271° West 299 344 12,400 2,727 Climbing FlightAware
11:28PM 42.1110 -88.3570 261° West 301 346 13,500 2,954 Climbing FlightAware
11:29PM 42.0890 -88.4300 248° West 305 351 15,600 2,329 Climbing FlightAware
11:30PM 42.0610 -88.5120 245° Southwest 347 399 16,800 2,188 Climbing FlightAware
11:30PM 42.0350 -88.5910 246° West 352 405 18,700 2,682 Climbing FlightAware
11:31PM 42.0030 -88.6850 245° Southwest 365 420 20,600 2,400 Climbing FlightAware
11:32PM 41.9750 -88.7620 244° Southwest 370 426 22,100 2,325 Climbing FlightAware
11:32PM 41.9410 -88.8430 241° Southwest 375 432 23,700 2,400 Climbing FlightAware
11:33PM 41.9000 -88.9400 240° Southwest 378 435 25,500 2,259 Climbing FlightAware
11:34PM 41.8660 -89.0180 240° Southwest 381 438 26,900 1,950 Climbing FlightAware
11:34PM 41.8320 -89.1000 241° Southwest 385 443 28,100 1,694 Climbing FlightAware
11:35PM 41.7910 -89.1970 240° Southwest 395 455 29,300 1,553 Climbing FlightAware
11:36PM 41.7530 -89.2840 240° Southwest 402 463 30,300 1,341 Climbing FlightAware
11:37PM 41.7120 -89.3800 240° Southwest 411 473 31,200 1,200 Climbing FlightAware
11:37PM 41.6740 -89.4670 240° Southwest 416 479 32,000 1,350 Climbing FlightAware
11:38PM 41.6340 -89.5600 240° Southwest 418 481 33,000 1,412 Climbing FlightAware
11:39PM 41.5920 -89.6590 240° Southwest 410 472 34,000 706 Climbing FlightAware
11:39PM 41.5530 -89.7470 239° Southwest 409 471 34,000  Level FlightAware
11:40PM 41.5110 -89.8440 240° Southwest 409 471 34,000  Level FlightAware
11:41PM 41.4730 -89.9320 240° Southwest 410 472 34,000  Level FlightAware
11:41PM 41.4350 -90.0170 239° Southwest 410 472 34,000  Level FlightAware
11:42PM 41.3920 -90.1150 240° Southwest 409 471 34,000  Level FlightAware
11:43PM 41.3540 -90.2020 240° Southwest 410 472 34,000  Level FlightAware
11:44PM 41.3110 -90.3000 240° Southwest 409 471 34,000  Level FlightAware
11:44PM 41.2720 -90.3870 239° Southwest 408 470 34,000  Level FlightAware
11:45PM 41.2310 -90.4790 239° Southwest 407 468 34,000  Level FlightAware
11:46PM 41.1920 -90.5660 239° Southwest 406 467 34,000  Level FlightAware
11:46PM 41.1520 -90.6550 239° Southwest 406 467 34,000  Level FlightAware
11:47PM 41.1090 -90.7510 239° Southwest 407 468 34,000  Level FlightAware
11:48PM 41.0700 -90.8380 239° Southwest 406 467 34,000  Level FlightAware
11:48PM 41.0320 -90.9230 239° Southwest 407 468 34,000  Level FlightAware
11:49PM 40.9890 -91.0180 239° Southwest 406 467 34,000  Level FlightAware
11:50PM 40.9500 -91.1040 239° Southwest 405 466 34,000  Level FlightAware
11:51PM 40.9080 -91.1940 238° Southwest 404 465 34,000  Level FlightAware
11:51PM 40.8700 -91.2780 239° Southwest 403 464 34,000  Level FlightAware
11:52PM 40.8240 -91.3790 239° Southwest 404 465 34,000  Level FlightAware
11:53PM 40.7860 -91.4620 239° Southwest 403 464 34,000  Level FlightAware
11:53PM 40.7480 -91.5440 239° Southwest 401 461 34,000  Level FlightAware
11:54PM 40.7040 -91.6400 239° Southwest 400 460 34,000  Level FlightAware
11:55PM 40.6650 -91.7230 238° Southwest 399 459 34,000  Level FlightAware
11:56PM 40.6150 -91.8290 238° Southwest 399 459 34,000  Level FlightAware
11:56PM 40.5690 -91.9280 239° Southwest 399 459 34,000  Level FlightAware
11:57PM 40.5330 -92.0060 239° Southwest 399 459 34,000  Level FlightAware
11:58PM 40.4920 -92.0940 239° Southwest 399 459 34,000  Level FlightAware
11:59PM 40.4500 -92.1830 238° Southwest 399 459 34,000  Level FlightAware
11:59PM 40.4090 -92.2690 238° Southwest 400 460 34,000  Level FlightAware
12:00AM 40.3720 -92.3490 239° Southwest 401 461 34,000  Level FlightAware
12:01AM 40.3270 -92.4420 238° Southwest 400 460 34,000  Level FlightAware
12:01AM 40.2820 -92.5380 238° Southwest 399 459 34,000  Level FlightAware
12:02AM 40.2450 -92.6160 238° Southwest 398 458 34,000  Level FlightAware
12:03AM 40.2040 -92.7000 237° Southwest 398 458 34,000  Level FlightAware
12:03AM 40.1600 -92.7920 238° Southwest 398 458 34,000 -424 Level FlightAware
12:04AM 40.1210 -92.8740 238° Southwest 401 461 33,400 -918 Descending FlightAware
12:05AM 40.0770 -92.9650 238° Southwest 403 464 32,700 -918 Descending FlightAware
12:06AM 40.0370 -93.0470 238° Southwest 406 467 32,100 -1,875 Descending FlightAware
12:06AM 39.9970 -93.1290 238° Southwest 404 465 30,200 -2,541 Descending FlightAware
12:07AM 39.9510 -93.2240 238° Southwest 398 458 28,500 -2,188 Descending FlightAware
12:08AM 39.9130 -93.3020 238° Southwest 387 445 27,100 -2,753 Descending FlightAware
12:08AM 39.8710 -93.3900 238° Southwest 383 441 24,600 -3,035 Descending FlightAware
12:09AM 39.8330 -93.4660 237° Southwest 383 441 22,800 -2,475 Descending FlightAware
12:10AM 39.8060 -93.5510 248° West 384 442 21,300 -2,118 Descending FlightAware
12:10AM 39.7870 -93.6530 256° West 369 425 19,800 -2,118 Descending FlightAware
12:11AM 39.7600 -93.7320 246° West 355 409 18,300 -2,047 Descending FlightAware
12:12AM 39.7170 -93.8020 231° Southwest 336 387 16,900 -1,976 Descending FlightAware
12:13AM 39.6760 -93.8610 228° Southwest 329 379 15,500 -2,175 Descending FlightAware
12:13AM 39.6350 -93.9190 227° Southwest 328 377 14,000 -2,188 Descending FlightAware
12:14AM 39.5880 -93.9860 228° Southwest 325 374 12,400 -1,694 Descending FlightAware
12:15AM 39.5490 -94.0430 228° Southwest 303 349 11,600 -565 Descending FlightAware
12:15AM 39.5150 -94.1040 234° Southwest 277 319 11,600  Level FlightAware
12:16AM 39.4870 -94.1600 237° Southwest 270 311 11,600 -975 Level FlightAware
12:17AM 39.4590 -94.2150 237° Southwest 288 331 10,300 -2,057 Descending FlightAware
12:17AM 39.4370 -94.2590 237° Southwest 297 342 9,200 -1,855 Descending FlightAware
12:18AM 39.4180 -94.2970 237° Southwest 294 338 8,600 -1,745 Descending FlightAware
12:18AM 39.3940 -94.3420 235° Southwest 299 344 7,600 -1,600 Descending FlightAware
12:19AM 39.3720 -94.3860 237° Southwest 300 345 7,000 -1,091 Descending FlightAware
12:19AM 39.3540 -94.4210 236° Southwest 296 341 6,600 -436 Descending FlightAware
12:20AM 39.3330 -94.4630 237° Southwest 269 310 6,600 -200 Level FlightAware
12:20AM 39.3120 -94.5040 237° Southwest 257 296 6,400 -655 Descending FlightAware
12:20AM 39.2960 -94.5350 236° Southwest 253 291 6,000 -873 Descending FlightAware
12:21AM 39.2760 -94.5730 236° Southwest 249 287 5,600 -873 Descending FlightAware
12:21AM 39.2590 -94.5990 230° Southwest 253 291 5,200 -1,050 Descending FlightAware
12:22AM 39.2390 -94.6090 201° Southwest 265 305 4,900 -1,050 Descending FlightAware
12:22AM 39.2110 -94.6160 191° South 265 305 4,500 -1,000 Descending FlightAware
12:23AM 39.1690 -94.6270 191° South 261 300 3,900 -900 Descending FlightAware
12:23AM 39.1460 -94.6450 211° Southwest 247 284 3,600 -514 Descending FlightAware
12:23AM 39.1420 -94.6540 240° Southwest 216 249 3,600  Level FlightAware
12:24AM 39.1300 -94.6820 241° Southwest 216 249 3,600  Level FlightAware
12:24AM 39.1333 -94.7000 241° Southwest 179 206 3,600 -679 Level Kansas City TRACON
12:25AM 39.1353 -94.7397 274° West 185 213 3,000 -367 Descending Kansas City Center
12:26AM 39.1706 -94.7619 334° Northwest 150 173 3,000 -149 Level Kansas City Center
12:27AM 39.2136 -94.7533 North 139 160 2,700 -295 Descending Kansas City Center